| time (UTC) | temp F | wind direction | speed knots | gust knots | rain 1hr in | rain 24hr in | rain mn in | humidity % | barometer mb |
| 20260905153347 | 74 | 140 | 2.6 | 3.5 | 0.00 | 0.00 | 0.00 | 75 | 1010.4 |
| 20260905152847 | 72 | 123 | 0.9 | 0.9 | 0.00 | 0.00 | 0.00 | 76 | 1010.2 |
| 20260905152346 | 73 | 60 | 0.9 | 1.7 | 0.00 | 0.00 | 0.00 | 74 | 1010.5 |
| 20260905151841 | 73 | 103 | 1.7 | 1.7 | 0.00 | 0.00 | 0.00 | 72 | 1010.5 |
| 20260905151337 | 72 | 145 | 0.9 | 1.7 | 0.00 | 0.00 | 0.00 | 76 | 1010.6 |
| 20260905150837 | 71 | 213 | 0.0 | 0.0 | 0.00 | 0.00 | 0.00 | 82 | 1010.4 |
| 20260905150331 | 71 | 82 | 0.0 | 0.9 | 0.00 | 0.00 | 0.00 | 78 | 1010.4 |
| 20260905145828 | 73 | 153 | 0.9 | 0.9 | 0.00 | 0.00 | 0.00 | 78 | 1010.4 |
| 20260905145323 | 70 | 168 | 0.9 | 0.9 | 0.00 | 0.00 | 0.00 | 82 | 1010.5 |
| 20260905144822 | 70 | 202 | 0.0 | 0.9 | 0.00 | 0.00 | 0.00 | 83 | 1010.5 |
| 20260905144318 | 71 | 188 | 0.9 | 1.7 | 0.00 | 0.00 | 0.00 | 79 | 1010.6 |
| 20260905143816 | 72 | 202 | 0.9 | 1.7 | 0.00 | 0.00 | 0.00 | 83 | 1010.8 |
| 20260905143311 | 69 | 200 | 0.9 | 0.9 | 0.00 | 0.00 | 0.00 | 80 | 1010.5 |
| 20260905142810 | 69 | 200 | 0.0 | 0.9 | 0.00 | 0.00 | 0.00 | 82 | 1010.6 |
| 20260905142306 | 70 | 204 | 1.7 | 1.7 | 0.00 | 0.00 | 0.00 | 84 | 1010.5 |
| 20260905141800 | 68 | 167 | 0.9 | 0.9 | 0.00 | 0.00 | 0.00 | 82 | 1010.6 |
| 20260905141255 | 68 | 168 | 0.0 | 0.9 | 0.00 | 0.00 | 0.00 | 86 | 1010.6 |
| 20260905140751 | 69 | 167 | 1.7 | 3.5 | 0.00 | 0.00 | 0.00 | 84 | 1010.5 |
| 20260905140251 | 68 | 182 | 2.6 | 2.6 | 0.00 | 0.00 | 0.00 | 83 | 1010.8 |
| 20260905135749 | 67 | 100 | 0.9 | 0.9 | 0.00 | 0.00 | 0.00 | 86 | 1010.7 |
| 20260905135245 | 69 | 78 | 0.0 | 0.0 | 0.00 | 0.00 | 0.00 | 85 | 1010.6 |
| 20260905134744 | 68 | 110 | 1.7 | 1.7 | 0.00 | 0.00 | 0.00 | 83 | 1010.5 |
| 20260905134239 | 67 | 106 | 0.9 | 1.7 | 0.00 | 0.00 | 0.00 | 87 | 1010.5 |
| 20260905133734 | 68 | 207 | 0.9 | 0.9 | 0.00 | 0.00 | 0.00 | 88 | 1010.2 |
| 20260905133229 | 68 | 207 | 0.9 | 0.9 | 0.00 | 0.00 | 0.00 | 87 | 1010.5 |
| 20260905132728 | 68 | 135 | 0.9 | 0.9 | 0.00 | 0.00 | 0.00 | 88 | 1010.4 |
| 20260905132224 | 66 | 188 | 0.9 | 1.7 | 0.00 | 0.00 | 0.00 | 90 | 1010.4 |
| 20260905131719 | 66 | 185 | 1.7 | 1.7 | 0.00 | 0.00 | 0.00 | 91 | 1010.5 |
| 20260905131214 | 66 | 120 | 1.7 | 2.6 | 0.00 | 0.00 | 0.00 | 89 | 1010.6 |
| 20260905130713 | 65 | 194 | 1.7 | 1.7 | 0.00 | 0.00 | 0.00 | 92 | 1010.6 |
| 20260905130208 | 64 | 175 | 0.9 | 0.9 | 0.00 | 0.00 | 0.00 | 96 | 1010.7 |
| 20260905125703 | 62 | 203 | 0.9 | 0.9 | 0.00 | 0.00 | 0.00 | 99 | 1010.7 |
| 20260905125158 | 62 | 183 | 0.9 | 0.9 | 0.00 | 0.00 | 0.00 | 99 | 1010.7 |
| 20260905124654 | 61 | 194 | 0.0 | 0.0 | 0.00 | 0.00 | 0.00 | 99 | 1010.7 |
| 20260905124150 | 60 | 194 | 0.0 | 0.9 | 0.00 | 0.00 | 0.00 | 99 | 1010.9 |
| 20260905123645 | 60 | 195 | 0.9 | 0.9 | 0.00 | 0.00 | 0.00 | 99 | 1011.1 |
| 20260905123142 | 59 | 199 | 0.9 | 0.9 | 0.00 | 0.00 | 0.00 | 99 | 1011.0 |
| 20260905122641 | 59 | 199 | 0.9 | 0.9 | 0.00 | 0.00 | 0.00 | 99 | 1011.1 |
| 20260905122136 | 59 | 199 | 1.7 | 1.7 | 0.00 | 0.00 | 0.00 | 99 | 1010.9 |
| 20260905121631 | 59 | 199 | 1.7 | 1.7 | 0.00 | 0.00 | 0.00 | 99 | 1011.0 |
| 20260905121127 | 58 | 199 | 1.7 | 1.7 | 0.00 | 0.00 | 0.00 | 99 | 1011.0 |
| 20260905120625 | 58 | 198 | 0.9 | 0.9 | 0.00 | 0.00 | 0.00 | 99 | 1010.8 |
| 20260905120121 | 58 | 199 | 0.9 | 1.7 | 0.00 | 0.00 | 0.00 | 99 | 1010.6 |
| 20260905115620 | 58 | 199 | 0.9 | 1.7 | 0.00 | 0.00 | 0.00 | 99 | 1010.8 |
| 20260905115115 | 58 | 199 | 1.7 | 1.7 | 0.00 | 0.00 | 0.00 | 99 | 1010.8 |
| 20260905114614 | 58 | 199 | 0.9 | 1.7 | 0.00 | 0.00 | 0.00 | 99 | 1010.7 |
| 20260905114113 | 58 | 198 | 0.9 | 0.9 | 0.00 | 0.00 | 0.00 | 99 | 1010.9 |
| 20260905113608 | 58 | 198 | 0.0 | 0.0 | 0.00 | 0.00 | 0.00 | 99 | 1010.8 |
| 20260905113104 | 57 | 198 | 0.9 | 0.9 | 0.00 | 0.00 | 0.00 | 99 | 1010.9 |
| 20260905112558 | 57 | 198 | 0.0 | 0.0 | 0.00 | 0.00 | 0.00 | 99 | 1010.7 |
| 20260905112054 | 57 | 198 | 0.0 | 0.0 | 0.00 | 0.00 | 0.00 | 99 | 1010.4 |
| 20260905111549 | 57 | 198 | 0.0 | 0.9 | 0.00 | 0.00 | 0.00 | 99 | 1010.4 |
| 20260905111048 | 57 | 198 | 0.0 | 0.0 | 0.00 | 0.00 | 0.00 | 99 | 1010.4 |
| 20260905110547 | 57 | 198 | 0.9 | 0.9 | 0.00 | 0.00 | 0.00 | 99 | 1010.2 |
| 20260905110043 | 57 | 198 | 0.0 | 0.0 | 0.00 | 0.00 | 0.00 | 99 | 1010.1 |
| 20260905105542 | 57 | 197 | 0.0 | 0.9 | 0.00 | 0.00 | 0.00 | 99 | 1009.8 |
| 20260905105042 | 57 | 197 | 0.0 | 0.0 | 0.00 | 0.00 | 0.00 | 99 | 1009.7 |
| 20260905104538 | 57 | 197 | 0.0 | 0.0 | 0.00 | 0.00 | 0.00 | 99 | 1009.7 |
| 20260905104037 | 57 | 197 | 0.0 | 0.9 | 0.00 | 0.00 | 0.00 | 99 | 1009.8 |
| 20260905103533 | 58 | 197 | 0.0 | 0.9 | 0.00 | 0.00 | 0.00 | 99 | 1009.7 |
| 20260905103029 | 58 | 197 | 0.9 | 0.9 | 0.00 | 0.00 | 0.00 | 99 | 1009.7 |
| 20260905102524 | 58 | 197 | 0.0 | 0.0 | 0.00 | 0.00 | 0.00 | 99 | 1009.5 |
| 20260905102020 | 58 | 197 | 0.0 | 0.9 | 0.00 | 0.00 | 0.00 | 99 | 1009.7 |
| 20260905101518 | 58 | 197 | 0.9 | 0.9 | 0.00 | 0.00 | 0.00 | 99 | 1009.3 |
| 20260905101017 | 58 | 197 | 0.9 | 0.9 | 0.00 | 0.00 | 0.00 | 99 | 1009.5 |
| 20260905100514 | 58 | 197 | 0.9 | 0.9 | 0.00 | 0.00 | 0.00 | 99 | 1009.4 |
| 20260905100008 | 58 | 197 | 0.0 | 0.0 | 0.00 | 0.00 | 0.00 | 99 | 1009.4 |
| 20260905095503 | 58 | 198 | 0.9 | 0.9 | 0.00 | 0.00 | 0.00 | 99 | 1009.3 |
| 20260905094957 | 58 | 181 | 0.0 | 0.9 | 0.00 | 0.00 | 0.00 | 99 | 1009.4 |
| 20260905094453 | 58 | 178 | 0.9 | 0.9 | 0.00 | 0.00 | 0.00 | 99 | 1009.3 |
| 20260905093951 | 58 | 176 | 0.9 | 0.9 | 0.00 | 0.00 | 0.00 | 99 | 1009.4 |
| 20260905093447 | 58 | 176 | 0.9 | 0.9 | 0.00 | 0.00 | 0.00 | 99 | 1009.3 |
| 20260905092942 | 58 | 166 | 0.0 | 0.0 | 0.00 | 0.00 | 0.00 | 99 | 1009.2 |
| 20260905092438 | 58 | 166 | 0.0 | 0.0 | 0.00 | 0.00 | 0.00 | 99 | 1009.3 |
| 20260905091932 | 58 | 166 | 0.0 | 0.9 | 0.00 | 0.00 | 0.00 | 99 | 1009.2 |
| 20260905091427 | 58 | 166 | 0.0 | 0.0 | 0.00 | 0.00 | 0.00 | 99 | 1009.3 |
| 20260905090926 | 58 | 166 | 0.9 | 0.9 | 0.00 | 0.00 | 0.00 | 99 | 1009.4 |
| 20260905090422 | 59 | 166 | 0.0 | 0.0 | 0.00 | 0.00 | 0.00 | 99 | 1009.2 |
| 20260905085921 | 59 | 166 | 0.0 | 0.0 | 0.00 | 0.00 | 0.00 | 99 | 1009.4 |
| 20260905085420 | 59 | 164 | 0.0 | 0.0 | 0.00 | 0.00 | 0.00 | 99 | 1009.4 |
| 20260905084917 | 59 | 164 | 0.0 | 0.0 | 0.00 | 0.00 | 0.00 | 99 | 1009.5 |
| 20260905084415 | 59 | 164 | 0.0 | 0.0 | 0.00 | 0.00 | 0.00 | 99 | 1009.4 |
| 20260905083910 | 59 | 164 | 0.9 | 0.9 | 0.00 | 0.00 | 0.00 | 99 | 1009.3 |
| 20260905083407 | 59 | 164 | 0.0 | 0.0 | 0.00 | 0.00 | 0.00 | 99 | 1009.4 |
| 20260905082902 | 59 | 165 | 0.9 | 0.9 | 0.00 | 0.00 | 0.00 | 99 | 1009.3 |
| 20260905082358 | 59 | 165 | 0.0 | 0.0 | 0.00 | 0.00 | 0.00 | 99 | 1009.4 |
| 20260905081853 | 59 | 165 | 0.9 | 0.9 | 0.00 | 0.00 | 0.00 | 99 | 1009.5 |
| 20260905081348 | 59 | 165 | 0.0 | 0.0 | 0.00 | 0.00 | 0.00 | 99 | 1009.3 |
| 20260905080846 | 59 | 165 | 0.0 | 0.9 | 0.00 | 0.00 | 0.00 | 99 | 1009.5 |
| 20260905080341 | 59 | 165 | 0.0 | 0.9 | 0.00 | 0.00 | 0.00 | 99 | 1009.5 |
| 20260905075839 | 59 | 165 | 0.0 | 0.0 | 0.00 | 0.00 | 0.00 | 99 | 1009.3 |
| 20260905075334 | 60 | 165 | 0.9 | 0.9 | 0.00 | 0.00 | 0.00 | 99 | 1009.2 |
| 20260905074833 | 60 | 165 | 0.0 | 0.0 | 0.00 | 0.00 | 0.00 | 99 | 1009.3 |
| 20260905074329 | 60 | 165 | 0.0 | 0.0 | 0.00 | 0.00 | 0.00 | 99 | 1009.4 |
| 20260905073824 | 60 | 165 | 0.9 | 0.9 | 0.00 | 0.00 | 0.00 | 99 | 1009.4 |
| 20260905073319 | 60 | 165 | 0.9 | 0.9 | 0.00 | 0.00 | 0.00 | 99 | 1009.2 |
| 20260905072814 | 60 | 165 | 0.9 | 0.9 | 0.00 | 0.00 | 0.00 | 99 | 1009.5 |
| 20260905072309 | 60 | 165 | 0.9 | 0.9 | 0.00 | 0.00 | 0.00 | 99 | 1009.5 |
| 20260905071806 | 60 | 165 | 0.0 | 0.9 | 0.00 | 0.00 | 0.00 | 99 | 1009.5 |
| 20260905071302 | 60 | 165 | 0.0 | 0.9 | 0.00 | 0.00 | 0.00 | 99 | 1009.6 |
| 20260905070756 | 61 | 165 | 0.0 | 0.9 | 0.00 | 0.00 | 0.00 | 99 | 1009.6 |
| 20260905070252 | 61 | 165 | 0.0 | 0.9 | 0.00 | 0.00 | 0.00 | 99 | 1009.6 |
| 20260905065751 | 61 | 165 | 0.0 | 0.9 | 0.00 | 0.00 | 0.00 | 99 | 1009.7 |
| 20260905065244 | 61 | 165 | 0.0 | 0.0 | 0.00 | 0.00 | 0.00 | 99 | 1009.9 |
| 20260905064740 | 61 | 165 | 0.0 | 0.9 | 0.00 | 0.00 | 0.00 | 99 | 1010.1 |
| 20260905064235 | 62 | 165 | 0.0 | 0.9 | 0.00 | 0.00 | 0.00 | 99 | 1009.7 |
| 20260905063728 | 62 | 165 | 0.0 | 0.0 | 0.00 | 0.00 | 0.00 | 98 | 1009.8 |
| 20260905063224 | 62 | 165 | 0.9 | 0.9 | 0.00 | 0.00 | 0.00 | 98 | 1009.7 |
| 20260905062720 | 62 | 165 | 0.0 | 0.0 | 0.00 | 0.00 | 0.00 | 99 | 1009.7 |
| 20260905062219 | 62 | 165 | 0.0 | 0.0 | 0.00 | 0.00 | 0.00 | 98 | 1009.9 |
| 20260905061714 | 62 | 165 | 0.0 | 0.9 | 0.00 | 0.00 | 0.00 | 98 | 1010.1 |
| 20260905061209 | 62 | 165 | 0.0 | 0.9 | 0.00 | 0.00 | 0.00 | 98 | 1009.9 |
| 20260905060704 | 62 | 165 | 0.9 | 1.7 | 0.00 | 0.00 | 0.00 | 98 | 1009.9 |
| 20260905060201 | 62 | 165 | 0.0 | 0.0 | 0.00 | 0.00 | 0.00 | 99 | 1010.3 |
| 20260905055659 | 62 | 165 | 0.9 | 0.9 | 0.00 | 0.00 | 0.00 | 99 | 1010.3 |
| 20260905055154 | 62 | 165 | 0.0 | 0.9 | 0.00 | 0.00 | 0.00 | 99 | 1010.2 |
| 20260905054649 | 62 | 165 | 0.0 | 0.0 | 0.00 | 0.00 | 0.00 | 99 | 1010.2 |
| 20260905054145 | 63 | 165 | 0.0 | 0.9 | 0.00 | 0.00 | 0.00 | 99 | 1010.2 |
| 20260905053645 | 63 | 165 | 0.0 | 0.0 | 0.00 | 0.00 | 0.00 | 99 | 1010.3 |
| 20260905053140 | 63 | 165 | 0.0 | 0.0 | 0.00 | 0.00 | 0.00 | 99 | 1010.4 |
| 20260905052639 | 63 | 165 | 0.0 | 0.0 | 0.00 | 0.00 | 0.00 | 99 | 1010.5 |
| 20260905052134 | 63 | 165 | 0.0 | 0.0 | 0.00 | 0.00 | 0.00 | 99 | 1010.6 |
| 20260905051629 | 63 | 165 | 0.9 | 0.9 | 0.00 | 0.00 | 0.00 | 99 | 1010.7 |
| 20260905051126 | 63 | 165 | 0.0 | 0.0 | 0.00 | 0.00 | 0.00 | 99 | 1010.6 |
| 20260905050622 | 63 | 165 | 0.0 | 0.9 | 0.00 | 0.00 | 0.00 | 99 | 1010.6 |
| 20260905050119 | 63 | 165 | 0.0 | 0.9 | 0.00 | 0.00 | 0.00 | 99 | 1010.7 |
| 20260905045618 | 63 | 165 | 0.0 | 0.0 | 0.00 | 0.00 | 0.00 | 99 | 1010.6 |
| 20260905045114 | 63 | 165 | 0.0 | 0.0 | 0.00 | 0.00 | 0.00 | 99 | 1010.4 |
| 20260905044613 | 63 | 165 | 0.0 | 0.0 | 0.00 | 0.00 | 0.00 | 99 | 1010.7 |
| 20260905044108 | 63 | 165 | 0.0 | 0.0 | 0.00 | 0.00 | 0.00 | 99 | 1010.7 |
| 20260905043607 | 63 | 165 | 0.0 | 0.0 | 0.00 | 0.00 | 0.00 | 98 | 1010.8 |
| 20260905043103 | 63 | 165 | 0.0 | 0.0 | 0.00 | 0.00 | 0.00 | 98 | 1010.8 |
| 20260905042601 | 64 | 165 | 0.0 | 0.0 | 0.00 | 0.00 | 0.00 | 98 | 1011.0 |
| 20260905042056 | 64 | 165 | 0.0 | 0.0 | 0.00 | 0.00 | 0.00 | 98 | 1010.9 |
| 20260905041552 | 64 | 165 | 0.0 | 0.0 | 0.00 | 0.00 | 0.00 | 98 | 1010.7 |
| 20260905041047 | 64 | 165 | 0.0 | 0.0 | 0.00 | 0.00 | 0.00 | 98 | 1010.9 |
| 20260905040547 | 64 | 165 | 0.0 | 0.0 | 0.00 | 0.00 | 0.00 | 98 | 1010.7 |
| 20260905040045 | 64 | 165 | 0.0 | 0.0 | 0.00 | 0.00 | 0.00 | 98 | 1010.8 |
| 20260905035541 | 63 | 165 | 0.0 | 0.0 | 0.00 | 0.32 | 0.32 | 98 | 1010.6 |
| 20260905035038 | 64 | 165 | 0.0 | 0.0 | 0.00 | 0.32 | 0.32 | 97 | 1010.4 |
| 20260905034533 | 64 | 165 | 0.0 | 0.0 | 0.00 | 0.32 | 0.32 | 97 | 1010.8 |
| 20260905034033 | 64 | 165 | 0.0 | 0.0 | 0.00 | 0.32 | 0.32 | 97 | 1010.7 |
| 20260905033526 | 64 | 165 | 0.0 | 0.0 | 0.00 | 0.32 | 0.32 | 97 | 1010.8 |
| 20260905033023 | 64 | 165 | 0.0 | 0.0 | 0.00 | 0.32 | 0.32 | 97 | 1010.9 |
| 20260905032517 | 64 | 165 | 0.0 | 0.0 | 0.00 | 0.32 | 0.32 | 97 | 1010.8 |
| 20260905032012 | 64 | 165 | 0.0 | 0.0 | 0.00 | 0.32 | 0.32 | 96 | 1010.7 |
| 20260905031508 | 64 | 165 | 0.0 | 0.0 | 0.00 | 0.32 | 0.32 | 96 | 1010.7 |
| 20260905031003 | 64 | 165 | 0.0 | 0.0 | 0.00 | 0.32 | 0.32 | 96 | 1010.5 |
| 20260905030458 | 64 | 165 | 0.0 | 0.0 | 0.00 | 0.32 | 0.32 | 96 | 1010.7 |
| 20260905025956 | 64 | 165 | 0.0 | 0.0 | 0.00 | 0.32 | 0.32 | 95 | 1010.5 |
| 20260905025452 | 64 | 165 | 0.0 | 0.0 | 0.00 | 0.32 | 0.32 | 95 | 1010.7 |
| 20260905024944 | 64 | 165 | 0.0 | 0.0 | 0.00 | 0.32 | 0.32 | 95 | 1010.6 |
| 20260905024444 | 65 | 165 | 0.0 | 0.0 | 0.00 | 0.32 | 0.32 | 95 | 1010.9 |
| 20260905023939 | 64 | 165 | 0.0 | 0.0 | 0.00 | 0.32 | 0.32 | 94 | 1010.7 |
| 20260905023434 | 65 | 165 | 0.0 | 0.0 | 0.00 | 0.32 | 0.32 | 94 | 1010.8 |
| 20260905022933 | 65 | 165 | 0.0 | 0.0 | 0.00 | 0.32 | 0.32 | 94 | 1011.0 |
| 20260905022428 | 65 | 165 | 0.0 | 0.0 | 0.00 | 0.32 | 0.32 | 94 | 1010.9 |
| 20260905021923 | 65 | 165 | 0.0 | 0.0 | 0.00 | 0.32 | 0.32 | 94 | 1010.9 |
| 20260905021418 | 65 | 165 | 0.0 | 0.0 | 0.00 | 0.32 | 0.32 | 94 | 1010.8 |
| 20260905020913 | 65 | 165 | 0.0 | 0.0 | 0.00 | 0.32 | 0.32 | 94 | 1010.9 |
| 20260905020412 | 65 | 165 | 0.0 | 0.0 | 0.00 | 0.32 | 0.32 | 94 | 1010.8 |
| 20260905015912 | 66 | 165 | 0.0 | 0.0 | 0.00 | 0.32 | 0.32 | 95 | 1011.0 |
| 20260905015410 | 65 | 165 | 0.0 | 0.9 | 0.00 | 0.32 | 0.32 | 91 | 1010.7 |
| 20260905014910 | 65 | 165 | 0.0 | 0.0 | 0.00 | 0.32 | 0.32 | 92 | 1010.6 |
| 20260905014405 | 65 | 164 | 0.0 | 0.0 | 0.00 | 0.32 | 0.32 | 93 | 1010.7 |
| 20260905013900 | 65 | 164 | 0.0 | 0.0 | 0.00 | 0.32 | 0.32 | 93 | 1010.8 |
| 20260905013357 | 65 | 164 | 0.0 | 0.0 | 0.00 | 0.32 | 0.32 | 94 | 1010.9 |
| 20260905012852 | 65 | 164 | 0.0 | 0.0 | 0.00 | 0.32 | 0.32 | 93 | 1010.7 |
| 20260905012347 | 65 | 164 | 0.0 | 0.0 | 0.00 | 0.32 | 0.32 | 93 | 1010.6 |
| 20260905011844 | 65 | 164 | 0.0 | 0.0 | 0.00 | 0.32 | 0.32 | 92 | 1011.0 |
| 20260905011339 | 65 | 165 | 0.0 | 0.0 | 0.00 | 0.32 | 0.32 | 92 | 1010.5 |
| 20260905010835 | 65 | 165 | 0.0 | 0.0 | 0.00 | 0.32 | 0.32 | 92 | 1010.7 |
| 20260905010330 | 65 | 165 | 0.0 | 0.0 | 0.00 | 0.32 | 0.32 | 92 | 1010.7 |
| 20260905005826 | 65 | 165 | 0.0 | 0.0 | 0.00 | 0.32 | 0.32 | 92 | 1010.5 |
| 20260905005322 | 65 | 164 | 0.0 | 0.0 | 0.00 | 0.32 | 0.32 | 91 | 1011.0 |
| 20260905004816 | 65 | 165 | 0.0 | 0.9 | 0.00 | 0.32 | 0.32 | 91 | 1010.7 |
| 20260905004311 | 65 | 165 | 0.0 | 0.0 | 0.00 | 0.32 | 0.32 | 91 | 1010.9 |
| 20260905003806 | 65 | 164 | 0.0 | 0.9 | 0.00 | 0.32 | 0.32 | 91 | 1010.7 |
| 20260905003302 | 65 | 165 | 0.0 | 0.9 | 0.00 | 0.32 | 0.32 | 90 | 1010.7 |
| 20260905002757 | 65 | 165 | 0.0 | 0.0 | 0.00 | 0.32 | 0.32 | 89 | 1010.7 |
| 20260905002251 | 65 | 165 | 0.0 | 0.0 | 0.00 | 0.32 | 0.32 | 89 | 1010.6 |
| 20260905001746 | 66 | 165 | 0.0 | 0.0 | 0.00 | 0.32 | 0.32 | 89 | 1010.6 |
| 20260905001246 | 66 | 165 | 0.0 | 0.0 | 0.00 | 0.32 | 0.32 | 90 | 1010.5 |
| 20260905000742 | 66 | 164 | 0.0 | 0.0 | 0.00 | 0.32 | 0.32 | 90 | 1010.5 |
| 20260905000237 | 66 | 164 | 0.0 | 0.0 | 0.00 | 0.32 | 0.32 | 89 | 1010.4 |
| 20260904235732 | 66 | 164 | 0.0 | 0.0 | 0.00 | 0.32 | 0.32 | 87 | 1010.3 |
| 20260904235226 | 67 | 164 | 0.0 | 0.0 | 0.00 | 0.32 | 0.32 | 86 | 1010.1 |
| 20260904234721 | 68 | 164 | 0.0 | 0.0 | 0.00 | 0.32 | 0.32 | 85 | 1010.3 |
| 20260904234217 | 68 | 165 | 0.0 | 0.0 | 0.00 | 0.32 | 0.32 | 83 | 1010.5 |
| 20260904233712 | 68 | 164 | 0.0 | 0.9 | 0.00 | 0.32 | 0.32 | 83 | 1010.2 |
| 20260904233209 | 69 | 164 | 0.0 | 0.0 | 0.00 | 0.32 | 0.32 | 82 | 1010.2 |
| 20260904232705 | 69 | 164 | 0.9 | 0.9 | 0.00 | 0.32 | 0.32 | 82 | 1010.2 |
| 20260904232201 | 69 | 164 | 0.0 | 0.9 | 0.00 | 0.32 | 0.32 | 80 | 1010.4 |
| 20260904231656 | 70 | 176 | 0.0 | 0.9 | 0.00 | 0.32 | 0.32 | 80 | 1010.4 |
| 20260904231151 | 70 | 175 | 0.0 | 0.9 | 0.00 | 0.32 | 0.32 | 80 | 1010.3 |
| 20260904230651 | 70 | 188 | 0.0 | 0.9 | 0.00 | 0.32 | 0.32 | 80 | 1010.3 |
| 20260904230146 | 70 | 148 | 0.0 | 0.9 | 0.00 | 0.32 | 0.32 | 80 | 1010.3 |
| 20260904225644 | 71 | 340 | 0.0 | 0.0 | 0.00 | 0.32 | 0.32 | 80 | 1010.1 |
| 20260904225139 | 71 | 340 | 0.9 | 0.9 | 0.00 | 0.32 | 0.32 | 79 | 1010.4 |
| 20260904224633 | 71 | 181 | 0.0 | 0.0 | 0.00 | 0.32 | 0.32 | 80 | 1010.4 |
| 20260904224128 | 72 | 174 | 0.0 | 0.9 | 0.00 | 0.32 | 0.32 | 81 | 1010.4 |
| 20260904223627 | 72 | 174 | 0.0 | 0.0 | 0.00 | 0.32 | 0.32 | 80 | 1010.2 |
| 20260904223122 | 73 | 169 | 0.0 | 0.9 | 0.00 | 0.32 | 0.32 | 80 | 1010.4 |
| 20260904222619 | 73 | 165 | 0.0 | 0.0 | 0.00 | 0.32 | 0.32 | 79 | 1010.3 |
| 20260904222113 | 73 | 179 | 0.0 | 0.9 | 0.00 | 0.32 | 0.32 | 78 | 1010.5 |
| 20260904221608 | 73 | 172 | 0.0 | 0.0 | 0.00 | 0.32 | 0.32 | 80 | 1010.5 |
| 20260904221107 | 73 | 172 | 0.9 | 0.9 | 0.00 | 0.32 | 0.32 | 80 | 1010.4 |
| 20260904220603 | 74 | 178 | 0.0 | 0.0 | 0.00 | 0.32 | 0.32 | 77 | 1010.2 |
| 20260904220058 | 74 | 176 | 0.0 | 0.0 | 0.00 | 0.32 | 0.32 | 77 | 1010.3 |
| 20260904215558 | 74 | 176 | 0.0 | 0.9 | 0.00 | 0.32 | 0.32 | 77 | 1010.6 |
| 20260904215054 | 74 | 175 | 0.0 | 0.9 | 0.00 | 0.32 | 0.32 | 76 | 1010.2 |
| 20260904214549 | 75 | 176 | 0.0 | 0.9 | 0.00 | 0.32 | 0.32 | 73 | 1010.4 |
| 20260904214044 | 76 | 156 | 1.7 | 1.7 | 0.00 | 0.32 | 0.32 | 71 | 1010.3 |
| 20260904213542 | 77 | 157 | 0.0 | 0.0 | 0.00 | 0.32 | 0.32 | 70 | 1010.3 |
| 20260904213039 | 77 | 103 | 0.0 | 0.9 | 0.00 | 0.32 | 0.32 | 71 | 1010.1 |
| 20260904212538 | 78 | 170 | 0.0 | 0.0 | 0.00 | 0.32 | 0.32 | 70 | 1010.1 |
| 20260904212028 | 77 | 207 | 0.0 | 0.0 | 0.00 | 0.32 | 0.32 | 69 | 1009.7 |
| 20260904211528 | 77 | 198 | 0.9 | 0.9 | 0.00 | 0.32 | 0.32 | 71 | 1010.1 |
| 20260904211023 | 77 | 198 | 0.0 | 0.9 | 0.00 | 0.32 | 0.32 | 72 | 1010.1 |
| 20260904210523 | 78 | 196 | 0.0 | 0.0 | 0.00 | 0.32 | 0.32 | 71 | 1009.8 |
| 20260904210019 | 77 | 197 | 0.0 | 0.9 | 0.00 | 0.32 | 0.32 | 71 | 1010.1 |
| 20260904205514 | 78 | 195 | 0.0 | 0.0 | 0.00 | 0.32 | 0.32 | 67 | 1010.2 |
| 20260904205011 | 79 | 220 | 1.7 | 1.7 | 0.00 | 0.32 | 0.32 | 66 | 1010.3 |
| 20260904204506 | 79 | 206 | 0.9 | 0.9 | 0.00 | 0.32 | 0.32 | 65 | 1010.1 |
| 20260904204002 | 80 | 225 | 0.9 | 1.7 | 0.00 | 0.32 | 0.32 | 64 | 1010.2 |
| 20260904203458 | 79 | 64 | 0.9 | 0.9 | 0.00 | 0.32 | 0.32 | 64 | 1010.4 |
| 20260904202954 | 80 | 212 | 0.9 | 1.7 | 0.00 | 0.32 | 0.32 | 68 | 1010.4 |
| 20260904202450 | 79 | 196 | 0.0 | 0.9 | 0.00 | 0.32 | 0.32 | 66 | 1010.5 |
| 20260904201946 | 79 | 223 | 0.0 | 0.9 | 0.00 | 0.32 | 0.32 | 68 | 1010.6 |
| 20260904201441 | 78 | 252 | 1.7 | 2.6 | 0.00 | 0.32 | 0.32 | 65 | 1010.8 |
| 20260904200936 | 80 | 145 | 0.0 | 0.0 | 0.00 | 0.32 | 0.32 | 66 | 1010.6 |
| 20260904200434 | 80 | 75 | 0.9 | 1.7 | 0.00 | 0.32 | 0.32 | 64 | 1010.6 |
| 20260904195930 | 79 | 234 | 0.9 | 0.9 | 0.00 | 0.32 | 0.32 | 66 | 1010.7 |
| 20260904195428 | 79 | 165 | 1.7 | 2.6 | 0.00 | 0.32 | 0.32 | 64 | 1010.7 |
| 20260904194927 | 79 | 244 | 0.0 | 0.9 | 0.00 | 0.32 | 0.32 | 68 | 1010.6 |
| 20260904194427 | 79 | 213 | 2.6 | 2.6 | 0.00 | 0.32 | 0.32 | 68 | 1010.7 |
| 20260904193922 | 78 | 202 | 1.7 | 2.6 | 0.00 | 0.32 | 0.32 | 66 | 1010.5 |
| 20260904193418 | 78 | 203 | 3.5 | 5.2 | 0.00 | 0.32 | 0.32 | 64 | 1010.5 |
| 20260904192913 | 80 | 204 | 4.3 | 7.0 | 0.00 | 0.32 | 0.32 | 64 | 1010.9 |
| 20260904192409 | 78 | 180 | 1.7 | 1.7 | 0.00 | 0.32 | 0.32 | 67 | 1010.8 |
| 20260904191905 | 78 | 174 | 4.3 | 5.2 | 0.00 | 0.32 | 0.32 | 65 | 1010.8 |
| 20260904191401 | 78 | 206 | 3.5 | 6.1 | 0.00 | 0.32 | 0.32 | 73 | 1011.0 |
| 20260904190857 | 79 | 155 | 0.9 | 1.7 | 0.00 | 0.32 | 0.32 | 67 | 1011.0 |
| 20260904190352 | 79 | 66 | 0.9 | 0.9 | 0.00 | 0.32 | 0.32 | 68 | 1010.8 |
| 20260904185849 | 80 | 135 | 0.9 | 0.9 | 0.00 | 0.32 | 0.32 | 68 | 1010.8 |
| 20260904185344 | 78 | 173 | 0.9 | 1.7 | 0.00 | 0.32 | 0.32 | 66 | 1010.9 |
| 20260904184844 | 79 | 166 | 0.9 | 1.7 | 0.00 | 0.32 | 0.32 | 67 | 1011.0 |
| 20260904184339 | 79 | 152 | 0.0 | 0.0 | 0.00 | 0.32 | 0.32 | 70 | 1011.2 |
| 20260904183834 | 79 | 183 | 1.7 | 2.6 | 0.00 | 0.32 | 0.32 | 64 | 1011.2 |
| 20260904183329 | 80 | 16 | 0.9 | 0.9 | 0.00 | 0.32 | 0.32 | 68 | 1011.2 |
| 20260904182824 | 79 | 197 | 1.7 | 1.7 | 0.00 | 0.32 | 0.32 | 70 | 1011.4 |
| 20260904182319 | 79 | 194 | 0.9 | 1.7 | 0.00 | 0.32 | 0.32 | 71 | 1011.1 |
| 20260904181815 | 79 | 184 | 0.0 | 0.0 | 0.00 | 0.32 | 0.32 | 68 | 1011.1 |
| 20260904181315 | 79 | 208 | 1.7 | 1.7 | 0.00 | 0.32 | 0.32 | 71 | 1011.1 |
| 20260904180810 | 80 | 126 | 0.0 | 0.0 | 0.00 | 0.32 | 0.32 | 73 | 1011.6 |
| 20260904180305 | 79 | 203 | 1.7 | 1.7 | 0.00 | 0.32 | 0.32 | 71 | 1011.3 |
| 20260904175804 | 77 | 358 | 0.9 | 1.7 | 0.00 | 0.32 | 0.32 | 71 | 1011.3 |
| 20260904175305 | 78 | 180 | 1.7 | 2.6 | 0.00 | 0.32 | 0.32 | 68 | 1011.1 |
| 20260904174758 | 78 | 255 | 1.7 | 3.5 | 0.00 | 0.32 | 0.32 | 73 | 1011.2 |
| 20260904174254 | 77 | 96 | 0.9 | 0.9 | 0.00 | 0.32 | 0.32 | 77 | 1011.2 |
| 20260904173749 | 79 | 103 | 2.6 | 3.5 | 0.00 | 0.32 | 0.32 | 71 | 1011.2 |
| 20260904173244 | 79 | 240 | 1.7 | 2.6 | 0.00 | 0.32 | 0.32 | 75 | 1011.3 |
| 20260904172741 | 78 | 225 | 1.7 | 2.6 | 0.00 | 0.32 | 0.32 | 73 | 1011.2 |
| 20260904172239 | 77 | 120 | 0.9 | 1.7 | 0.00 | 0.32 | 0.32 | 73 | 1011.2 |
| 20260904171734 | 77 | 210 | 0.9 | 1.7 | 0.00 | 0.32 | 0.32 | 71 | 1011.1 |
| 20260904171229 | 77 | 196 | 1.7 | 1.7 | 0.00 | 0.32 | 0.32 | 74 | 1011.1 |
| 20260904170725 | 78 | 141 | 0.9 | 1.7 | 0.00 | 0.32 | 0.32 | 73 | 1011.4 |
| 20260904170221 | 77 | 133 | 1.7 | 2.6 | 0.00 | 0.32 | 0.32 | 73 | 1011.4 |
| 20260904165720 | 78 | 19 | 1.7 | 2.6 | 0.00 | 0.32 | 0.32 | 73 | 1011.1 |
| 20260904165215 | 77 | 62 | 0.9 | 0.9 | 0.00 | 0.32 | 0.32 | 72 | 1011.1 |
| 20260904164709 | 78 | 108 | 0.0 | 0.9 | 0.00 | 0.32 | 0.32 | 75 | 1011.3 |
| 20260904164204 | 77 | 96 | 0.9 | 0.9 | 0.00 | 0.32 | 0.32 | 79 | 1011.2 |
| 20260904163700 | 77 | 86 | 0.9 | 0.9 | 0.00 | 0.32 | 0.32 | 74 | 1011.4 |
| 20260904163155 | 76 | 184 | 2.6 | 2.6 | 0.00 | 0.32 | 0.32 | 79 | 1011.1 |
| 20260904162654 | 76 | 133 | 0.0 | 0.9 | 0.00 | 0.32 | 0.32 | 77 | 1011.6 |
| 20260904162149 | 76 | 81 | 2.6 | 3.5 | 0.00 | 0.32 | 0.32 | 75 | 1011.5 |
| 20260904161645 | 77 | 26 | 0.0 | 0.9 | 0.00 | 0.32 | 0.32 | 77 | 1011.7 |
| 20260904161140 | 77 | 169 | 3.5 | 6.1 | 0.00 | 0.32 | 0.32 | 72 | 1011.8 |
| 20260904160636 | 77 | 74 | 0.9 | 1.7 | 0.00 | 0.32 | 0.32 | 72 | 1011.7 |
| 20260904160131 | 77 | 168 | 1.7 | 1.7 | 0.00 | 0.32 | 0.32 | 73 | 1011.6 |
| 20260904155626 | 77 | 222 | 1.7 | 2.6 | 0.00 | 0.32 | 0.32 | 73 | 1011.7 |
| 20260904155120 | 77 | 74 | 0.9 | 0.9 | 0.00 | 0.32 | 0.32 | 75 | 1011.7 |
| 20260904154613 | 76 | 78 | 1.7 | 2.6 | 0.00 | 0.32 | 0.32 | 71 | 1011.5 |
| 20260904154113 | 74 | 172 | 0.0 | 0.0 | 0.00 | 0.32 | 0.32 | 79 | 1011.6 |